Location: Chatham
(39.6760°N, 89.7040°W)
Time: 14:49:18
(UTC-06:00)

Hubble Space Telescope - Visible Passes

Search period start: 20 January 2018 00:00
Search period end: 30 January 2018 00:00
Orbit: 537 x 541 km, 28.5° (Epoch: 20 January)

Date Brightness Start Highest point End Pass type
(mag) Time Alt. Az. Time Alt. Az. Time Alt. Az.
23 Jan 3.5 19:33:51 10° SSW 19:34:20 11° SSW 19:34:20 11° SSW visible
24 Jan 3.2 19:23:15 10° SSW 19:24:44 14° S 19:24:44 14° S visible
25 Jan 2.9 19:12:44 10° SW 19:15:07 16° S 19:15:07 16° S visible
26 Jan 2.8 19:02:16 10° SW 19:04:59 17° S 19:05:31 17° SSE visible
27 Jan 2.8 18:51:53 10° SW 18:54:37 17° S 18:55:55 15° SSE visible
28 Jan 3.0 18:41:32 10° SW 18:44:15 17° S 18:46:21 12° SSE visible
29 Jan 3.1 18:31:14 10° SW 18:33:52 16° S 18:36:30 10° SE visible
